GEFSSE_con_probscp_108.txt.gz
Probability
15 15 16 14 8 3 1 0 0 0 0 0 0 0 0 0 0 1 2 3 2 1 0 0 0 0 0 0 0 0 0 0 0 0 0 1 1 1 0 0 0 0 0
23 19 16 13 7 3 2 1 0 0 0 0 0 0 0 0 0 1 2 3 3 1 0 0 0 0 0 0 0 0 0 0 0 0 0 0 0 0 0 0 0 0 0
26 20 15 12 8 4 3 2 1 1 0 0 0 0 0 0 0 1 2 2 2 1 0 0 0 0 0 0 0 0 0 0 0 0 0 0 0 0 0 0 0 0 0
17 14 13 14 11 6 3 3 3 2 1 1 1 1 0 0 0 0 1 1 1 1 0 0 0 0 0 0 0 0 0 0 0 0 0 0 0 0 0 0 0 0 1
9 11 14 17 15 9 5 4 4 5 4 4 4 2 1 0 0 0 0 0 0 1 0 0 0 0 0 0 0 0 0 0 0 0 0 0 0 0 0 0 0 0 1
12 13 15 19 16 10 6 5 6 6 7 8 7 5 2 1 1 0 0 0 0 0 0 0 0 0 0 0 0 0 0 0 0 0 0 0 0 0 0 0 0 0 1
21 18 19 21 17 9 7 7 7 8 10 10 9 7 4 3 3 2 2 1 0 0 0 0 0 0 0 0 0 0 0 0 0 0 0 0 0 0 0 0 0 0 0
28 22 21 23 18 11 9 10 10 12 14 16 14 12 9 6 5 4 3 2 1 1 0 0 0 0 0 0 0 0 0 0 0 0 0 0 0 0 0 0 0 0 0
29 22 17 17 16 12 10 13 16 17 20 21 20 18 14 8 6 5 3 3 3 2 0 0 0 0 0 0 0 0 0 0 0 0 0 0 0 0 0 0 0 0 0
28 20 12 10 11 8 7 12 18 22 23 23 20 17 13 8 4 2 3 6 6 2 0 0 0 0 0 0 0 0 0 0 0 0 0 1 1 0 0 0 0 0 0
30 21 11 9 8 5 5 10 15 17 19 18 14 11 8 4 1 1 7 14 13 6 2 1 1 0 0 0 0 0 0 0 0 0 2 5 5 2 0 0 0 0 0
32 23 16 15 13 10 11 12 9 9 14 13 11 11 8 4 4 8 20 29 24 14 7 4 3 1 0 0 0 0 0 0 0 2 6 11 10 6 2 1 1 0 0
32 26 22 24 23 21 21 18 10 12 18 16 17 21 16 9 11 21 35 40 33 21 13 10 7 3 1 1 0 0 0 1 2 4 10 16 16 12 8 5 3 1 0
36 31 29 33 34 34 34 28 20 22 28 27 32 35 27 19 19 29 41 42 33 22 16 13 10 5 3 2 2 2 1 1 4 8 13 19 22 19 13 8 4 1 0
44 40 40 44 45 49 51 44 34 35 38 39 46 47 38 30 28 35 45 44 32 23 19 16 12 10 10 9 9 9 7 7 10 14 18 21 24 23 18 11 6 3 2
48 48 52 55 57 62 63 55 47 48 49 51 55 55 45 38 39 46 51 49 37 30 30 26 21 20 23 22 21 22 21 20 22 24 25 23 21 21 20 16 12 10 8
44 49 56 60 63 66 63 57 54 56 60 63 65 63 53 47 51 56 56 54 47 44 45 43 37 35 37 37 34 34 36 36 35 33 29 25 19 16 17 18 18 17 15
42 45 51 57 62 63 58 55 55 59 65 70 71 68 62 57 58 60 60 58 57 58 58 56 51 48 48 47 43 42 43 45 42 35 28 25 21 15 13 16 20 21 18
43 44 48 53 57 57 53 53 55 60 67 72 72 71 68 64 61 61 61 61 63 66 66 62 59 58 56 49 41 40 41 41 39 32 26 24 22 17 13 13 15 17 16
43 46 50 52 53 54 54 54 56 59 65 70 70 70 70 68 64 61 60 61 63 66 66 63 62 60 56 45 35 30 31 31 31 28 25 23 20 17 12 9 8 9 9
44 47 51 52 52 55 57 58 59 60 63 66 68 69 70 68 64 59 58 60 62 62 62 61 60 57 51 41 32 25 23 22 21 21 21 20 17 13 10 7 5 4 4
40 43 49 51 52 55 58 60 61 61 62 64 65 67 67 63 59 57 58 60 60 59 57 56 54 51 45 36 30 23 18 15 15 14 14 14 14 11 9 7 6 4 2
30 35 43 49 52 53 55 58 58 60 62 63 64 64 62 58 54 53 56 57 56 54 52 50 47 45 39 30 26 21 14 11 11 10 9 10 10 9 7 6 6 4 2
23 26 35 43 46 47 49 52 54 57 59 59 60 60 57 54 50 49 51 53 51 49 46 45 42 39 33 26 23 20 14 9 7 6 6 6 6 4 3 3 2 2 1
18 20 26 32 36 38 40 43 48 51 52 51 51 52 52 50 48 49 49 47 46 45 43 40 38 34 29 24 20 17 14 9 5 3 3 3 2 1 1 0 0 0 0
14 17 21 25 29 32 34 37 42 44 44 43 43 45 48 49 49 50 48 44 43 44 40 35 33 30 26 22 18 15 12 8 4 2 2 1 0 0 0 0 0 0 0

GEFSSE_con_probscp_114.txt.gz
Probability
0 1 4 4 1 0 0 0 1 1 1 1 1 1 1 2 2 1 0 0 0 0 0 0 0 0 0 0 0 0 0 0 0 0 0 0 0 0 0 0 0 0 0
4 5 7 7 4 1 0 1 2 2 2 2 2 2 2 3 2 1 1 0 0 0 0 0 0 0 0 0 0 0 0 0 0 0 0 0 0 0 0 0 0 0 0
18 15 14 14 11 6 3 2 3 3 3 3 3 3 3 3 3 3 2 1 0 0 0 0 0 0 0 0 0 0 0 0 0 0 0 0 0 0 0 0 0 0 0
35 26 20 21 19 13 8 5 3 3 2 3 3 3 3 3 3 3 2 1 0 0 0 0 0 0 0 0 0 0 0 0 0 0 0 0 0 0 0 0 0 0 0
43 33 25 26 26 20 13 7 4 1 1 1 2 2 2 2 2 2 1 0 0 0 0 0 0 0 0 0 0 0 0 0 0 0 0 0 0 0 0 0 0 0 0
47 39 33 32 31 25 18 10 5 1 0 0 1 1 1 1 1 1 0 0 0 0 0 0 0 0 0 0 0 0 0 0 0 0 0 0 0 0 0 0 0 0 0
49 45 41 38 35 28 20 13 7 2 0 0 0 0 0 0 0 0 0 0 0 0 0 0 0 0 0 0 0 0 0 0 0 0 0 0 0 0 0 0 0 0 0
50 48 44 39 33 28 21 14 8 3 1 0 1 1 1 1 0 0 0 0 0 0 0 0 0 0 0 0 0 0 0 0 0 0 0 0 0 0 0 0 0 0 0
49 48 44 37 30 26 21 14 9 5 2 1 3 4 3 2 0 0 0 1 1 1 0 0 0 0 0 0 0 0 0 0 0 0 0 0 0 0 0 0 0 0 0
47 47 46 39 30 25 21 15 11 8 5 3 3 3 2 1 0 0 0 1 2 1 1 1 1 0 0 0 0 0 0 0 0 0 0 0 0 0 0 0 0 0 0
42 44 46 41 32 25 22 18 13 9 5 2 2 2 1 1 1 0 1 1 2 2 2 2 1 0 0 0 0 0 0 0 0 0 0 0 0 0 0 0 0 0 0
36 37 38 36 33 27 23 19 15 9 4 2 2 2 2 2 1 1 1 2 2 2 1 2 2 1 0 0 0 0 0 0 0 0 0 0 1 1 0 0 0 0 0
29 28 27 26 26 25 22 18 15 9 4 3 3 3 3 3 1 0 1 2 4 3 1 2 3 1 0 0 0 0 0 0 0 0 0 1 2 3 2 1 1 1 1
21 19 18 16 16 17 18 14 10 7 4 3 3 3 3 2 1 2 3 5 6 5 3 3 2 1 0 0 0 0 0 0 0 0 1 1 4 6 6 5 5 4 3
12 12 11 10 9 10 12 9 5 3 2 2 3 2 2 2 2 5 7 8 9 8 6 4 2 1 0 0 0 0 0 0 0 0 1 2 5 9 10 9 9 8 6
8 7 7 8 9 9 10 9 6 4 3 4 4 3 3 4 4 7 9 9 9 8 7 6 5 3 1 0 1 1 0 0 0 0 1 2 5 11 14 13 11 9 8
9 9 9 10 12 13 12 11 9 8 8 8 6 6 8 8 9 11 11 8 7 7 7 7 6 5 2 1 1 1 0 0 0 0 1 1 4 9 14 13 10 9 9
11 12 13 13 14 15 15 15 14 13 13 12 10 11 13 13 13 14 12 8 6 6 7 7 7 5 2 1 1 1 0 0 0 0 0 0 1 5 9 9 7 7 8
10 10 11 12 13 14 16 19 20 19 17 16 16 15 17 17 15 14 13 10 7 7 7 7 6 4 2 2 1 0 0 0 0 0 0 0 0 2 5 6 6 7 7
7 7 8 9 11 12 15 19 23 24 22 21 19 19 19 19 17 16 15 12 10 10 10 7 5 4 3 4 3 1 0 0 0 0 0 0 0 1 3 5 7 8 8
7 6 6 8 11 12 13 17 22 24 23 22 21 19 19 18 17 16 15 14 14 15 13 10 7 6 6 5 3 1 0 0 0 0 0 0 0 0 2 5 6 7 7
7 6 5 6 8 10 11 15 19 21 22 21 20 18 16 16 17 17 16 16 16 16 14 13 11 10 9 7 4 2 0 0 0 0 0 0 0 0 2 4 4 3 4
4 4 3 2 3 5 8 11 16 18 17 17 17 15 14 15 17 17 17 16 14 13 12 11 12 12 10 8 5 2 0 0 0 0 0 0 0 0 1 3 3 2 2
2 2 1 1 0 2 4 7 11 12 12 12 12 11 11 13 15 16 15 13 12 11 10 9 8 9 9 9 6 2 0 0 0 0 0 0 0 0 0 1 2 1 1
2 2 2 2 1 1 1 3 5 6 7 8 9 7 6 7 10 12 11 9 8 8 7 6 4 5 7 8 6 3 1 0 0 0 0 0 0 0 0 0 0 0 0
2 3 3 3 2 1 0 0 1 3 4 6 7 5 4 5 7 9 8 5 4 4 5 3 2 2 5 6 5 4 2 1 0 0 0 0 0 0 0 0 0 0 0

GEFSSE_con_probscp_120.txt.gz
Probability
3 3 2 1 1 3 8 12 14 16 14 10 7 3 1 0 0 0 0 0 0 0 0 0 0 0 0 0 0 0 0 0 0 0 0 0 0 0 0 0 0 0 0
5 4 3 2 3 5 8 12 15 15 12 10 7 4 2 1 1 0 0 0 0 0 0 0 0 0 0 0 0 0 0 0 0 0 0 0 0 0 0 0 0 0 0
9 8 6 6 7 8 10 14 17 16 11 9 8 6 5 3 1 0 0 0 0 0 0 0 0 0 0 0 0 0 0 0 0 0 0 0 0 0 0 0 0 0 0
15 12 11 13 15 15 16 18 19 17 12 9 9 8 7 5 2 1 0 0 0 0 0 0 0 0 0 0 0 0 0 0 0 0 0 0 0 0 0 0 0 0 0
24 20 19 22 23 24 25 24 21 17 13 11 9 8 6 5 4 2 1 1 0 0 1 1 1 0 0 0 0 0 0 0 0 0 0 0 0 0 0 0 0 0 0
34 30 29 33 35 33 32 28 22 18 15 12 10 8 6 5 5 4 3 3 2 1 2 2 2 1 0 0 0 0 0 0 0 0 0 0 0 0 0 0 0 0 0
43 40 40 44 46 42 36 31 24 20 17 14 11 7 5 5 5 5 5 5 4 3 3 3 2 1 0 0 0 0 0 0 0 0 0 0 0 0 0 0 0 0 0
53 51 50 52 51 47 39 32 25 20 18 15 11 6 4 3 3 4 5 5 5 4 4 3 2 1 0 0 0 0 0 0 0 0 0 0 0 0 0 0 0 0 0
58 58 57 55 52 49 41 32 25 19 17 14 9 5 3 1 1 3 4 4 4 3 3 3 2 2 1 1 0 0 0 0 0 0 0 0 0 0 0 0 0 0 0
54 57 58 55 52 52 46 35 26 20 16 11 7 4 3 1 1 1 2 3 2 1 1 1 2 3 3 3 2 1 1 1 1 0 0 0 0 0 0 0 0 0 0
47 48 52 54 54 55 50 40 31 25 17 11 7 6 5 3 2 1 1 1 1 0 0 1 2 3 4 5 5 4 3 2 2 1 0 0 0 0 0 0 0 0 0
40 39 43 50 55 54 49 42 36 30 21 13 9 9 7 4 2 1 1 1 1 1 1 3 3 3 4 5 5 4 3 3 2 1 0 0 0 0 0 0 0 0 0
36 35 37 44 48 46 43 40 37 32 24 15 10 9 7 4 2 1 1 1 1 2 3 5 5 4 4 4 3 2 1 2 1 0 0 1 1 1 1 1 0 0 0
31 31 32 36 37 34 33 34 34 30 23 15 10 7 5 4 2 1 0 1 1 2 5 6 6 5 5 3 1 0 0 0 0 0 1 2 3 3 3 2 2 1 1
21 23 25 26 26 24 24 26 29 27 20 13 9 7 5 3 2 0 1 2 2 3 6 7 7 7 6 4 1 0 0 0 0 0 1 2 4 4 4 4 4 4 4
11 13 16 18 17 17 19 21 24 23 16 10 8 7 5 3 1 1 1 2 2 4 6 7 7 7 6 4 2 1 0 0 0 0 0 1 3 5 5 6 6 6 6
9 9 10 11 10 10 13 16 17 16 12 8 7 6 3 1 1 1 1 1 2 3 5 6 5 5 4 4 3 1 0 0 0 0 0 1 2 4 5 6 7 7 7
9 8 8 7 5 6 9 10 9 9 7 6 5 4 2 1 1 1 0 1 2 3 3 4 4 4 3 3 2 1 0 0 0 0 0 0 1 2 3 5 6 7 7
7 6 5 5 4 5 8 8 6 5 5 4 4 4 3 3 2 1 1 1 2 2 1 2 4 3 3 3 2 1 0 0 0 0 0 0 0 0 2 3 4 4 5
2 3 3 3 4 6 8 8 6 4 4 4 4 3 3 3 3 2 2 2 2 1 0 1 2 2 3 3 2 1 0 0 0 0 0 0 0 0 1 1 1 2 2
0 1 2 2 3 4 6 6 6 4 3 3 2 2 1 1 1 1 2 2 1 0 0 0 1 2 3 3 2 1 0 0 0 0 0 0 0 0 0 0 1 2 1
0 0 1 1 1 2 3 3 3 2 1 1 1 0 0 0 0 0 1 1 1 0 1 1 2 2 3 2 2 2 1 1 0 0 0 0 0 0 0 0 2 3 3
0 0 0 0 0 1 1 1 1 1 0 0 0 0 0 0 0 0 0 0 0 0 1 2 3 4 4 3 3 4 3 1 0 0 0 0 0 0 0 0 1 2 2
0 1 1 1 0 0 0 1 1 0 0 0 0 0 0 0 0 0 0 0 0 0 1 1 2 3 4 4 4 5 4 2 0 0 0 0 0 0 0 0 0 1 1
1 1 1 1 0 0 0 0 0 0 0 0 0 0 0 0 0 0 0 0 0 0 0 0 0 1 2 3 5 5 4 2 1 0 0 0 0 0 0 0 0 0 0
2 2 1 0 0 0 0 0 0 0 0 0 0 0 0 0 0 0 0 0 0 0 0 0 0 0 1 2 4 6 5 3 2 1 0 0 0 0 0 0 0 0 0

GEFSSE_con_probscp_126.txt.gz
Probability
0 0 0 0 0 0 1 1 2 2 1 0 0 0 0 0 0 0 0 0 0 0 0 0 0 0 0 0 0 0 0 0 0 0 0 0 0 0 0 0 0 0 0
1 1 0 0 0 1 3 5 7 6 4 1 0 0 0 0 0 0 0 0 0 0 0 0 0 0 0 0 0 0 0 0 0 0 0 0 0 0 0 0 0 0 0
2 1 0 0 0 3 9 14 16 14 10 6 3 1 0 0 0 0 0 0 0 0 0 0 0 0 0 0 0 0 0 0 0 0 0 0 0 0 0 0 0 0 0
2 1 0 1 2 7 16 23 25 22 16 10 6 2 0 0 0 0 0 0 0 0 0 0 0 0 0 0 0 0 0 0 0 0 0 0 0 0 0 0 0 0 0
1 1 1 3 5 12 21 29 32 28 21 13 9 5 2 0 0 0 0 0 0 0 0 0 0 0 0 0 0 0 0 0 0 0 0 0 0 0 0 0 0 0 0
2 2 3 5 8 15 25 32 33 31 25 17 11 8 4 2 1 0 0 0 0 0 0 0 0 0 0 0 0 0 0 0 0 0 0 0 0 0 0 0 0 0 0
7 7 9 10 11 16 25 31 32 31 28 22 15 9 5 3 2 1 0 0 0 0 0 0 0 0 0 0 0 0 0 0 0 0 0 0 0 0 0 0 0 0 0
12 14 16 14 13 16 23 28 31 32 32 30 23 13 7 4 2 1 0 0 0 0 0 0 0 0 0 0 0 0 0 0 0 0 0 0 0 0 0 0 0 0 0
18 21 21 17 14 16 21 27 31 34 36 36 31 20 10 5 2 1 1 1 1 0 0 0 0 0 0 0 0 0 0 0 0 0 0 0 0 0 0 0 0 0 0
21 23 22 19 16 16 20 25 29 32 35 36 32 22 12 5 1 0 1 3 2 1 0 0 0 0 0 0 0 0 0 0 0 0 1 1 1 0 0 0 0 0 0
25 23 21 19 17 17 21 24 26 28 29 29 24 16 8 3 0 1 3 4 3 1 1 0 0 0 0 0 0 0 0 0 1 1 2 2 2 1 0 0 0 0 0
30 26 22 20 19 20 25 28 28 28 28 25 20 14 8 4 2 3 5 5 3 2 1 0 0 0 1 2 2 1 1 1 1 1 2 2 2 2 1 0 0 0 0
32 28 23 21 21 24 31 35 34 35 34 29 24 20 13 9 6 5 6 5 3 3 2 1 1 2 3 5 4 3 2 1 1 1 1 2 2 2 2 1 1 2 1
27 25 23 23 24 28 34 38 38 39 39 36 33 26 18 13 9 7 7 6 5 5 4 3 3 4 5 6 4 3 1 1 0 0 1 2 1 1 3 3 3 3 3
21 22 24 26 27 29 33 34 34 37 38 38 36 29 20 14 11 9 9 8 7 7 6 4 4 5 5 5 4 3 2 1 0 0 2 2 1 1 3 4 4 5 5
15 17 23 28 29 28 28 28 29 30 32 34 35 31 24 18 15 14 13 11 9 9 7 5 4 5 5 5 4 4 4 3 2 1 2 2 2 2 2 3 4 6 7
9 12 17 22 25 25 24 24 25 24 26 29 31 31 27 22 20 20 19 16 15 13 11 8 7 7 6 5 4 4 5 5 4 2 2 2 2 2 1 2 4 6 8
8 10 13 16 20 22 23 23 22 21 23 28 30 30 28 24 22 24 25 23 20 16 14 13 12 11 8 5 4 3 4 5 4 3 2 2 2 2 2 3 4 6 7
10 11 13 15 18 20 21 21 19 19 22 27 30 31 30 25 23 24 26 25 22 18 16 16 17 15 12 8 4 2 3 4 5 3 2 3 2 2 2 4 5 6 5
14 14 14 17 20 20 19 18 16 15 17 23 29 31 30 26 22 22 23 22 21 19 18 18 17 15 13 10 5 2 3 4 6 5 4 3 2 1 1 3 5 5 3
17 16 16 19 20 19 17 14 12 12 14 18 23 26 26 24 22 20 20 21 21 21 21 19 16 12 11 10 7 5 4 4 6 5 5 3 1 0 1 2 4 6 5
17 16 17 20 20 16 13 11 10 11 13 15 17 18 17 19 21 20 22 24 23 23 22 20 15 11 10 11 10 9 6 6 6 5 5 4 1 0 2 4 5 6 6
17 16 16 18 17 14 11 9 9 11 12 13 14 13 11 13 16 18 21 23 23 24 23 21 17 13 13 15 15 13 11 10 9 6 5 4 2 2 3 4 5 6 6
17 15 14 13 14 13 11 9 9 9 10 11 12 11 8 8 9 12 16 18 19 21 21 21 19 15 15 17 18 17 16 14 12 8 6 5 5 5 6 6 6 7 7
12 11 9 8 9 10 9 9 9 8 7 8 9 8 6 4 4 6 9 12 12 13 14 16 16 14 14 15 16 17 17 15 12 10 7 7 7 7 9 8 8 8 7
8 6 5 5 6 8 8 8 8 7 4 4 6 6 4 3 2 2 6 9 8 7 9 12 12 11 13 14 15 17 16 13 11 10 8 7 7 7 8 9 8 7 4

GEFSSE_con_probscp_132.txt.gz
Probability
16 13 10 6 2 0 0 0 0 0 0 0 0 0 0 0 0 1 1 0 0 0 0 0 0 0 0 0 0 0 0 0 0 0 0 0 0 0 0 0 0 0 0
16 13 11 7 3 1 0 0 0 0 0 0 0 0 0 0 0 1 1 0 0 0 0 0 0 0 0 0 0 0 0 0 0 0 0 0 0 0 0 0 0 0 0
14 12 12 11 8 4 2 1 1 0 0 0 0 0 0 0 0 1 1 0 0 0 0 0 0 0 0 0 0 0 0 0 0 0 0 0 0 0 0 0 0 0 0
12 13 15 18 16 10 5 3 2 1 0 0 0 0 0 0 0 0 0 0 0 0 0 0 0 0 0 0 0 0 0 0 0 0 0 0 0 0 0 0 0 0 0
13 17 22 26 24 17 9 6 3 1 0 1 1 1 1 0 1 1 1 0 0 0 0 0 0 0 0 0 0 0 0 0 0 0 0 0 0 0 0 0 0 0 0
20 21 26 32 30 22 14 8 5 2 2 3 3 3 2 1 2 2 1 0 0 0 0 0 0 0 0 0 0 0 0 0 1 1 1 0 0 0 0 0 0 0 0
27 26 29 34 33 26 19 14 10 9 8 7 6 5 4 4 3 3 1 0 0 0 0 0 0 0 0 0 0 0 0 0 1 2 1 1 2 2 0 0 0 0 0
32 28 27 30 31 29 25 22 20 20 20 18 14 11 8 6 4 2 1 0 0 0 0 0 0 0 0 0 0 0 0 0 2 2 1 2 4 4 2 0 0 0 0
33 28 24 22 24 28 29 29 29 29 30 30 25 19 13 7 3 2 1 1 1 0 0 0 0 0 0 0 0 0 0 0 1 2 2 3 7 6 3 1 1 1 1
33 30 24 19 19 22 26 30 31 32 34 36 32 24 15 7 3 3 3 4 3 1 0 0 0 0 0 0 0 0 0 0 0 1 1 5 9 7 3 2 2 2 1
38 33 26 20 17 17 20 25 28 30 34 34 30 24 17 10 6 6 10 13 9 3 1 1 1 1 0 0 0 0 0 0 0 0 3 9 13 10 4 2 2 1 1
39 34 27 23 20 18 21 25 26 29 33 29 26 24 19 14 13 17 23 23 15 7 3 3 3 2 1 1 2 2 1 0 0 2 8 17 20 14 7 3 2 1 1
35 33 29 28 28 28 29 32 31 34 37 32 29 30 24 20 24 30 34 30 20 12 7 6 6 3 3 4 4 4 3 1 1 4 11 22 25 17 7 3 3 3 2
37 36 33 34 39 41 41 40 38 40 41 39 40 37 29 26 31 35 38 34 23 12 9 10 7 4 4 5 4 4 4 3 4 6 12 21 26 19 9 5 5 5 5
41 41 39 42 49 53 52 46 41 41 40 40 41 37 31 31 33 34 36 36 25 14 13 12 7 5 6 5 4 4 6 6 6 8 13 20 24 21 15 11 9 9 9
45 45 45 48 56 61 57 48 40 38 37 35 36 34 33 36 37 35 34 33 26 21 21 19 13 10 10 7 5 5 7 7 8 11 15 19 21 22 22 19 16 15 14
50 49 46 47 53 59 57 48 39 36 36 35 34 35 37 40 41 39 37 33 29 29 31 29 23 18 14 9 7 7 8 9 13 17 18 19 19 19 21 21 20 17 16
53 52 48 45 48 51 50 47 41 37 38 37 36 37 39 41 42 41 39 35 31 32 33 31 27 21 15 12 11 9 10 14 18 19 18 18 17 15 15 17 17 15 12
54 52 49 48 48 45 42 42 42 41 40 38 36 36 37 38 39 39 36 33 31 30 28 26 24 21 19 16 11 8 11 17 19 18 16 14 14 14 12 12 12 11 9
52 50 49 49 48 43 39 39 41 41 40 37 34 33 32 33 35 35 33 30 30 28 25 22 22 22 22 19 12 7 9 15 18 17 15 11 11 12 12 11 11 9 9
50 48 46 46 44 42 41 40 40 38 36 33 30 27 25 26 28 30 30 28 28 27 25 23 22 21 22 21 15 9 9 12 15 15 14 11 10 10 11 12 13 11 8
48 46 44 43 41 39 37 35 33 31 29 29 27 23 20 20 22 24 26 27 27 25 23 21 20 17 18 19 17 13 10 9 9 9 11 10 9 10 11 12 14 12 10
44 43 42 41 40 37 32 28 27 26 25 24 23 21 18 17 17 18 20 22 23 21 18 16 15 15 15 15 15 14 12 10 8 7 8 8 9 10 10 9 10 11 11
40 40 40 40 40 37 32 29 27 25 22 18 17 17 17 16 14 13 14 16 16 14 13 12 13 14 13 13 12 13 14 13 11 10 8 6 8 9 9 8 8 10 11
39 37 36 36 36 34 33 32 28 23 18 14 12 13 14 14 13 11 10 11 11 10 9 10 11 12 11 11 11 11 12 12 13 12 9 7 6 8 9 9 9 9 10
39 36 33 34 33 32 31 30 27 22 16 13 10 9 10 12 13 11 8 9 10 9 8 9 9 8 8 9 10 10 10 11 12 12 9 7 6 7 9 9 10 9 8

GEFSSE_con_probscp_138.txt.gz
Probability
0 1 2 2 1 0 0 0 0 0 0 1 2 5 6 7 6 3 1 0 0 0 0 0 0 0 0 0 0 0 0 0 0 0 0 0 0 0 0 0 0 0 0
1 2 2 3 2 1 1 1 0 0 0 1 2 3 5 7 6 3 1 0 0 0 0 0 0 0 0 0 0 0 0 0 0 0 0 0 0 0 0 0 0 0 0
7 5 4 4 3 2 2 2 1 0 0 1 1 1 3 5 5 5 3 1 0 0 0 0 0 0 0 0 0 0 0 0 0 0 0 0 0 0 0 0 0 0 0
15 11 8 7 6 4 3 3 2 1 0 0 0 0 2 5 6 6 4 1 0 0 0 0 0 0 0 0 0 0 0 0 0 0 0 0 0 0 0 0 0 0 0
21 17 14 14 10 6 4 3 2 1 0 1 1 2 4 6 6 5 2 0 0 1 0 0 0 0 0 0 0 0 0 0 0 0 0 0 0 0 0 0 0 0 0
24 22 21 21 16 10 7 5 3 1 1 3 4 5 6 6 6 4 2 1 1 1 0 0 0 0 0 0 0 0 0 0 0 0 0 0 0 0 0 0 0 0 0
28 26 26 27 24 19 15 10 7 5 4 5 6 7 8 7 6 4 2 2 2 1 1 0 0 0 0 0 0 1 1 1 0 0 1 0 0 0 0 0 0 0 0
32 29 29 30 29 27 25 22 18 14 12 11 10 10 9 7 5 4 3 3 3 3 2 1 0 0 0 0 1 2 2 1 0 0 0 0 0 0 0 0 0 0 0
33 32 31 29 27 26 27 29 27 24 20 19 16 13 10 6 4 3 4 4 4 3 3 2 1 0 0 1 2 2 1 0 0 0 0 0 0 0 0 0 0 0 0
30 31 32 28 23 21 22 23 24 24 23 21 18 15 12 8 4 3 4 4 4 4 4 3 2 1 1 1 2 1 0 0 0 0 0 0 0 0 0 0 0 0 0
27 27 29 27 23 20 18 16 16 19 20 18 16 16 15 12 8 6 4 3 3 4 5 5 4 2 2 1 1 0 0 0 0 0 0 0 1 1 0 0 0 0 0
24 23 23 25 25 22 17 15 14 15 15 15 14 15 15 14 11 8 6 5 5 5 6 7 6 4 2 1 0 0 0 0 0 0 1 2 2 2 2 1 1 0 0
23 21 20 22 24 22 18 15 14 13 12 12 12 11 13 13 10 7 7 8 9 8 8 8 7 5 4 1 0 0 0 0 0 0 2 4 4 3 4 4 2 1 0
25 20 16 18 20 19 15 12 11 10 10 11 11 10 11 11 9 6 6 9 11 11 9 7 6 6 5 2 0 0 0 0 1 1 2 3 4 5 8 8 6 3 2
28 21 14 13 14 13 10 8 8 9 10 11 10 9 10 10 8 5 5 8 9 9 8 7 6 6 5 2 0 0 0 1 2 2 1 2 4 7 10 11 9 5 3
26 20 14 13 12 10 8 7 7 8 9 8 7 7 7 7 6 4 4 6 7 7 6 6 6 5 4 1 0 0 0 1 1 1 0 1 3 6 10 11 9 5 2
24 21 18 16 14 12 10 8 7 8 6 4 4 5 5 4 4 4 4 5 5 5 4 3 3 4 3 1 0 0 0 0 0 0 0 0 1 3 7 9 7 4 3
27 25 22 19 17 15 12 9 8 7 5 3 3 4 4 3 3 5 7 6 5 4 3 1 1 2 2 1 0 0 0 0 0 0 0 0 0 1 3 5 5 4 4
27 26 22 18 18 17 13 10 7 6 5 4 3 3 3 3 5 8 10 8 5 4 3 1 1 1 1 0 0 0 0 0 0 0 0 0 0 0 1 2 2 3 4
24 23 20 17 17 17 14 10 6 4 4 5 3 2 3 3 6 9 10 9 6 4 2 1 0 0 0 0 0 0 0 0 0 0 0 0 1 1 1 0 0 1 2
21 19 17 16 14 14 13 10 6 3 3 3 2 2 3 3 5 8 9 7 5 3 2 0 0 0 0 0 0 0 0 0 0 0 0 0 1 1 1 0 0 0 0
18 16 14 14 12 10 10 9 7 6 5 3 2 3 3 3 4 6 7 6 4 3 2 1 0 0 0 0 0 0 0 0 0 0 0 0 0 0 0 0 0 1 1
17 15 14 14 12 8 7 9 9 8 7 5 3 3 2 2 2 4 4 4 3 3 3 2 1 0 0 0 0 0 0 0 0 0 0 0 0 0 0 0 0 1 1
19 17 15 14 12 9 7 8 9 7 5 3 3 2 2 1 1 1 2 3 3 3 3 3 1 0 0 0 0 0 0 0 0 0 0 0 0 0 0 0 0 0 1
18 18 15 13 11 10 9 8 7 5 3 2 1 1 1 2 1 1 1 3 3 3 3 2 1 0 0 0 0 0 0 0 0 0 0 0 0 0 0 0 0 0 0
17 17 16 14 12 10 9 8 6 5 4 2 1 0 1 1 1 0 1 2 3 3 3 2 1 0 0 0 0 0 0 0 0 0 0 0 0 0 0 0 0 0 0

GEFSSE_con_probscp_144.txt.gz
Probability
0 0 0 0 2 7 9 8 7 8 10 13 17 17 11 4 1 0 0 0 0 0 0 0 1 1 0 0 0 0 0 0 0 0 0 0 0 0 0 0 0 0 0
2 1 0 0 3 7 8 7 7 7 10 13 15 14 10 5 3 1 0 0 0 0 0 0 1 2 1 0 0 0 0 0 0 0 0 0 0 0 0 0 0 0 0
5 2 0 1 4 7 8 6 6 6 8 11 13 12 10 7 5 3 1 0 0 0 0 0 1 1 1 0 0 0 0 0 0 0 0 0 0 0 0 0 0 0 0
8 3 1 3 6 8 8 6 6 6 6 8 10 11 10 8 7 5 3 1 1 0 0 0 1 1 0 0 0 0 0 0 0 0 0 0 0 0 0 0 0 0 0
9 5 4 7 9 10 9 8 7 6 6 7 9 10 10 9 7 5 4 3 2 1 0 0 1 0 0 0 0 0 0 0 0 0 0 0 0 0 0 0 0 0 0
10 8 8 11 12 11 11 10 9 8 7 8 9 10 9 9 8 6 4 4 3 2 0 0 0 0 0 0 0 1 1 1 0 0 0 0 0 0 0 0 0 0 0
13 12 12 14 15 14 14 13 12 11 10 11 11 9 7 8 9 8 7 6 5 2 0 0 0 0 0 0 0 1 2 1 1 1 0 0 0 0 0 0 0 0 0
20 18 16 18 19 18 17 16 16 16 15 15 14 11 8 9 10 11 10 7 5 3 1 1 1 0 0 0 1 1 1 1 0 0 0 0 0 0 0 0 0 0 0
27 26 24 24 24 21 19 19 20 21 21 20 17 13 11 11 11 13 13 10 7 5 3 2 2 1 0 1 2 1 0 0 0 0 0 0 0 0 0 0 0 0 0
31 30 30 30 28 23 19 20 21 22 23 21 16 12 10 10 10 12 14 13 10 7 5 3 3 1 0 2 3 2 1 0 0 0 0 0 0 0 0 0 0 0 0
32 31 32 33 30 24 19 18 19 18 17 15 12 9 7 6 7 9 11 12 10 9 7 6 4 3 2 2 2 2 2 1 0 0 0 0 0 0 0 0 0 0 0
35 33 33 34 31 25 19 15 15 13 10 8 7 7 6 5 5 6 8 8 9 9 9 8 7 6 5 4 3 2 1 0 0 0 0 1 1 2 2 1 0 0 0
36 36 36 35 32 26 19 15 13 11 8 7 7 7 7 6 5 6 6 6 7 8 9 10 10 9 8 6 4 2 1 0 0 0 1 3 5 6 4 2 0 0 0
34 36 36 34 29 24 20 17 14 12 10 9 8 8 8 6 5 6 5 4 5 6 8 12 13 11 9 7 4 2 1 0 0 0 1 4 6 7 5 2 1 0 0
32 33 32 29 26 23 21 18 15 13 10 8 7 8 7 6 5 5 5 4 4 4 6 10 12 10 8 6 4 2 1 0 0 0 1 2 3 3 2 1 1 0 0
31 30 27 24 22 21 19 16 14 11 8 6 6 6 6 5 4 3 3 3 3 2 4 6 8 8 7 6 4 2 1 0 0 0 0 0 1 1 0 0 0 0 1
26 24 21 19 17 16 14 13 11 7 5 5 5 4 4 3 2 1 2 2 1 1 2 3 5 6 5 4 3 2 1 0 0 0 0 0 0 0 0 1 1 1 2
17 17 15 14 13 11 9 8 7 5 3 3 2 1 1 1 1 1 2 2 1 1 1 2 3 3 3 2 1 1 0 0 0 0 0 0 0 0 0 1 2 3 4
9 11 13 12 11 9 6 5 4 2 2 1 1 0 0 1 1 1 2 3 3 2 2 2 1 1 1 1 0 0 0 0 0 0 0 0 0 0 0 1 1 3 4
6 10 13 12 10 7 4 2 2 1 0 0 0 0 0 1 1 0 1 2 3 3 3 2 1 0 0 0 0 0 0 0 0 0 0 0 0 0 0 0 0 1 1
6 9 11 10 8 7 5 3 2 1 0 0 0 0 0 0 0 0 1 1 2 2 2 2 1 0 0 0 0 0 0 0 0 0 0 0 0 0 0 0 0 0 0
7 8 9 8 6 6 6 4 3 2 0 0 0 0 0 0 0 0 1 1 1 1 1 1 0 0 0 0 0 0 0 0 0 0 0 0 0 0 0 0 0 0 0
8 9 9 7 5 5 5 4 3 1 0 0 0 0 0 0 0 0 0 0 0 0 0 0 0 0 0 0 0 0 0 0 0 0 0 0 0 0 0 0 0 0 0
10 9 8 6 4 4 3 3 2 1 0 0 0 0 0 0 0 0 0 0 0 0 0 0 0 1 0 0 0 0 0 0 0 0 0 0 0 0 0 0 0 0 0
9 9 7 5 3 2 1 1 1 0 0 0 0 0 0 0 0 0 0 0 0 0 0 0 0 0 0 0 0 0 0 0 0 0 0 0 0 0 0 0 0 0 0
9 9 7 5 2 1 0 0 0 0 0 0 0 0 0 0 0 0 0 0 0 0 0 0 0 0 0 0 0 0 0 0 0 0 0 0 0 0 0 0 0 0 0

GEFSSE_con_probscp_150.txt.gz
Probability
2 3 3 1 0 1 3 4 6 7 7 5 3 2 1 0 0 0 0 0 0 0 0 0 0 0 0 0 0 0 0 0 0 0 0 0 0 0 0 0 0 0 0
3 3 3 2 1 1 4 7 9 10 10 8 6 4 2 0 0 0 0 0 0 0 0 0 0 0 0 0 0 0 0 0 0 0 0 0 0 0 0 0 0 0 0
4 4 3 2 1 2 7 11 13 14 14 12 9 7 3 1 0 0 0 0 0 0 0 0 0 0 0 0 0 0 0 0 0 0 0 0 0 0 0 0 0 0 0
6 5 4 3 2 4 9 14 16 16 15 13 9 6 4 2 1 0 0 0 0 0 0 1 0 0 0 0 0 0 0 0 0 0 0 0 0 0 0 0 0 0 0
7 5 4 3 3 5 9 15 17 16 14 11 7 6 4 3 2 1 1 0 0 0 0 0 0 0 0 0 0 0 0 0 0 0 0 0 0 0 0 0 0 0 0
5 4 3 3 3 4 8 13 15 16 14 10 7 6 4 3 3 3 2 1 0 0 0 0 0 0 0 0 0 0 0 0 0 0 0 0 0 0 0 0 0 0 0
3 3 3 3 2 4 6 10 13 14 13 10 8 6 4 3 3 3 2 1 0 0 0 0 0 0 0 0 0 0 0 0 0 0 0 0 0 0 0 0 0 0 0
4 5 5 3 2 4 6 11 14 15 13 12 9 7 5 4 3 2 1 0 0 0 0 0 0 0 0 0 0 0 0 1 1 0 0 0 1 1 1 0 0 0 0
7 9 8 6 5 6 8 12 16 16 15 14 12 9 6 3 2 1 1 1 1 1 1 0 0 0 0 0 0 0 0 1 1 0 0 0 1 1 1 0 0 0 0
14 14 14 13 10 9 9 11 15 17 17 16 14 10 6 2 1 1 1 2 2 1 0 0 0 0 0 0 0 0 0 0 0 0 0 1 1 1 0 0 0 0 0
22 21 21 21 18 14 12 12 13 15 16 14 12 8 4 2 1 2 3 4 3 1 1 0 1 1 0 0 0 0 0 0 0 1 2 3 2 0 0 0 0 0 0
30 28 27 27 26 23 20 19 16 16 15 12 9 7 4 4 3 3 5 4 3 2 2 2 2 2 1 1 2 1 0 0 1 2 5 7 5 2 1 1 1 0 0
32 32 31 32 32 30 28 26 22 20 18 15 12 9 6 5 3 3 3 3 2 2 3 4 4 3 1 3 4 2 1 0 2 3 6 8 6 3 2 2 2 1 0
32 32 33 34 36 35 32 29 26 25 24 22 19 14 9 6 5 6 6 5 3 2 3 5 6 5 3 3 4 3 1 1 2 3 6 8 5 2 1 2 2 1 0
33 34 36 37 38 38 36 33 30 28 27 27 23 16 11 8 7 10 13 11 6 3 4 7 9 9 8 6 5 4 3 2 2 3 5 5 4 1 0 1 1 1 1
36 38 40 39 38 39 39 36 32 31 30 27 22 15 11 10 9 11 14 15 12 8 8 9 10 12 13 11 9 8 7 6 4 3 3 3 3 1 0 1 1 2 1
39 41 42 39 37 39 40 38 35 34 31 26 21 16 13 12 11 12 14 16 16 14 13 12 12 14 16 16 15 13 12 11 8 5 3 3 3 2 1 1 2 3 3
42 43 42 38 38 40 41 40 38 34 29 24 20 17 15 13 13 14 15 15 15 13 13 13 14 16 17 17 18 17 17 15 12 9 6 5 7 7 4 3 3 4 6
44 45 43 40 41 44 44 42 37 30 23 18 14 13 14 13 12 11 11 12 11 9 10 12 15 18 17 15 14 16 17 18 17 13 9 8 10 10 7 4 4 6 7
42 44 45 45 46 47 47 43 35 24 16 13 11 10 11 12 11 8 7 9 9 8 8 11 14 16 16 13 11 10 13 17 17 15 11 8 8 8 6 5 7 9 10
40 44 47 48 47 47 46 42 33 23 14 12 13 11 9 9 10 9 8 9 8 8 8 9 12 14 14 13 10 8 9 12 12 11 9 6 4 4 5 6 8 11 13
39 43 48 48 46 45 44 39 32 23 17 16 16 14 10 8 9 10 11 9 7 7 8 8 10 12 12 11 9 8 8 8 8 7 6 6 4 4 5 6 7 10 12
35 40 43 42 40 38 37 34 27 22 19 19 17 14 11 9 9 10 9 7 6 6 7 7 8 8 8 7 7 9 9 8 7 7 6 6 7 8 7 5 5 6 6
31 34 36 35 31 29 28 25 21 18 17 17 15 12 11 11 10 8 6 5 6 6 7 8 7 7 6 5 6 8 9 9 7 6 6 5 7 9 9 7 5 4 4
29 29 30 29 26 23 21 19 17 15 13 13 13 11 10 9 9 6 4 3 3 5 6 7 7 7 6 4 4 5 6 8 8 6 4 4 5 7 8 7 7 8 7
28 27 27 26 24 20 17 16 16 15 12 12 12 11 9 8 7 5 3 1 1 2 5 5 5 6 6 3 3 3 4 5 7 6 4 3 4 4 5 7 8 10 10

GEFSSE_con_probscp_156.txt.gz
Probability
18 19 20 18 13 9 6 5 4 3 3 3 3 3 4 5 4 4 4 3 1 0 0 0 0 0 1 1 2 3 3 3 3 3 3 3 3 3 3 3 3 2 2
20 20 21 20 14 9 7 6 5 4 4 4 3 3 3 4 4 3 2 2 1 0 0 0 0 0 1 1 2 3 3 3 3 3 3 3 3 4 3 3 3 2 1
23 21 22 21 16 10 8 8 6 6 6 5 4 3 3 3 4 3 1 1 2 1 0 0 0 0 0 1 2 3 3 3 3 3 3 3 3 4 3 3 2 1 0
22 21 21 22 18 13 10 9 8 7 6 5 4 3 3 3 3 2 1 1 2 2 1 0 0 0 0 0 1 2 3 3 3 3 3 3 3 3 3 2 2 1 1
18 19 22 24 20 15 12 10 8 7 6 5 5 4 3 3 3 1 0 1 2 3 2 1 0 0 0 0 0 1 1 2 3 3 3 3 3 4 4 3 3 2 2
19 19 22 25 22 17 14 11 10 9 8 7 6 5 5 4 3 1 0 0 1 3 3 2 1 0 0 0 0 0 0 2 3 3 3 3 4 6 6 5 4 2 1
26 23 23 26 24 20 17 14 14 13 12 10 9 8 7 7 5 2 1 0 1 2 3 3 2 1 0 0 0 0 1 2 3 3 3 4 7 9 7 5 4 2 1
32 26 24 25 24 22 20 19 20 20 18 15 14 13 10 9 7 4 2 1 1 3 3 3 3 2 1 0 0 0 1 3 4 3 3 5 11 13 8 3 2 1 0
35 27 21 22 22 22 22 24 25 25 23 22 20 16 11 8 6 4 3 3 3 3 3 3 3 3 2 1 0 0 1 3 4 3 2 6 13 15 9 4 1 0 0
40 30 21 20 20 20 22 25 27 27 26 24 22 17 11 7 5 4 3 3 4 3 3 2 2 3 2 2 1 0 1 2 2 1 2 8 16 17 12 7 3 1 0
45 36 27 23 21 19 21 25 27 26 24 22 20 17 12 7 4 4 7 9 9 7 6 4 3 3 3 4 3 2 1 1 1 1 5 15 22 22 16 10 6 4 3
48 42 35 31 26 23 27 31 28 24 22 19 18 18 14 10 8 10 18 23 19 13 10 10 9 6 4 4 5 6 5 3 3 5 14 25 29 25 17 12 10 8 7
50 45 41 40 36 34 39 39 29 26 27 24 23 24 21 18 18 22 30 32 24 16 14 16 16 11 5 3 6 8 7 6 6 11 22 32 33 25 18 14 13 11 10
52 50 48 50 49 49 53 48 35 34 37 36 36 37 32 29 29 33 37 35 25 18 17 17 18 14 8 5 6 6 6 7 9 14 26 37 35 25 18 16 14 12 11
59 56 55 58 62 65 66 59 47 46 49 50 53 51 43 39 40 41 42 38 27 22 21 20 19 18 15 12 10 8 9 9 11 17 27 37 37 28 21 18 15 11 9
68 65 61 64 71 73 71 67 61 58 59 61 61 57 51 49 48 48 47 42 33 28 28 27 25 24 21 18 16 16 17 16 16 21 28 35 37 34 30 26 20 14 11
75 71 66 68 74 75 69 67 66 64 65 66 64 60 57 53 51 49 48 43 36 32 32 32 29 26 22 19 19 20 21 22 22 24 29 32 34 36 36 35 30 22 17
77 75 71 71 75 73 68 66 65 65 66 68 68 65 59 52 47 45 44 41 37 34 30 28 27 24 19 18 18 18 20 23 24 25 27 31 33 34 36 37 35 29 24
76 75 75 74 74 70 67 67 66 65 67 68 68 65 57 47 40 39 39 38 36 33 26 23 24 22 19 16 14 14 16 21 24 24 26 30 33 34 33 31 30 29 28
73 73 74 73 71 67 65 65 66 67 66 66 64 58 49 39 31 30 32 34 32 29 25 21 19 18 16 12 9 9 12 16 21 23 24 27 31 33 31 27 24 24 26
69 68 68 68 66 64 62 62 64 65 62 60 57 50 41 32 26 23 26 29 27 26 25 21 16 13 12 10 8 7 8 10 15 21 24 25 25 27 27 24 23 21 19
63 62 61 63 63 61 61 61 61 60 55 52 50 46 38 30 25 23 26 26 25 26 25 21 16 13 12 10 10 8 6 6 10 17 22 22 21 21 19 18 18 17 16
52 54 56 58 58 57 57 57 57 55 50 45 44 43 37 31 27 26 27 26 26 26 25 21 18 16 14 12 12 10 6 4 7 12 15 17 18 17 13 11 11 12 14
42 46 50 51 51 49 48 48 49 48 44 39 38 38 36 31 29 27 25 25 24 24 24 22 19 17 14 12 12 11 8 6 5 6 8 11 15 15 12 9 7 8 9
37 39 42 44 43 42 41 41 41 40 38 35 32 31 30 29 26 23 22 21 20 21 23 24 20 15 12 11 11 11 9 7 6 4 4 6 9 11 10 8 7 7 7
34 34 36 40 40 39 39 39 38 36 35 33 30 27 26 25 22 20 19 19 18 19 22 24 20 14 11 10 11 11 9 7 6 6 4 4 5 7 9 9 7 6 6

GEFSSE_con_probscp_162.txt.gz
Probability
10 14 17 18 16 12 8 6 6 6 7 6 5 6 8 12 15 16 13 10 6 4 2 1 0 0 0 0 0 0 0 0 0 0 0 0 0 0 0 0 0 0 0
12 16 19 21 21 17 12 9 7 7 7 5 4 4 6 8 11 12 11 9 6 3 1 0 0 0 0 0 0 1 1 1 0 0 0 0 0 0 0 0 0 0 0
17 19 23 28 29 24 18 15 12 9 7 5 3 3 4 4 6 7 8 6 4 2 0 0 0 0 0 0 1 2 3 2 1 0 0 0 0 0 0 0 0 0 0
20 21 27 36 38 32 27 21 16 12 9 6 4 3 3 3 4 5 5 4 2 0 0 0 0 0 0 1 2 4 4 2 1 0 0 0 0 0 0 0 0 0 0
23 25 33 42 45 41 35 27 20 14 11 7 5 4 3 3 3 4 4 2 1 0 0 0 0 0 0 1 2 3 3 2 1 0 0 0 0 0 0 0 0 0 0
27 30 38 46 48 45 40 33 25 18 13 9 6 5 4 4 3 3 3 1 0 0 0 0 0 0 0 0 1 1 1 1 1 0 0 0 0 0 0 0 0 0 0
32 34 41 47 50 47 42 38 33 25 17 11 7 6 5 5 4 4 3 1 0 0 0 0 0 0 0 0 0 1 1 1 0 0 0 0 0 0 0 0 0 0 0
37 38 42 48 52 50 45 41 37 30 20 13 8 6 5 6 6 5 3 2 1 1 0 0 0 0 0 0 1 2 2 1 0 0 0 0 0 0 1 1 1 0 0
40 41 43 47 52 52 47 42 37 31 23 16 10 6 5 6 6 5 4 3 3 2 1 1 1 0 0 0 1 2 2 1 0 0 0 0 1 1 1 2 2 1 0
38 41 42 44 49 50 47 41 35 28 23 17 11 8 5 4 4 3 3 3 3 2 2 2 2 1 1 0 1 2 2 1 0 0 0 0 1 1 1 2 3 2 1
35 38 40 39 40 43 44 41 34 27 21 16 13 10 7 4 2 2 2 3 3 2 2 2 2 2 2 1 1 2 1 0 0 0 0 1 1 0 1 2 3 4 3
31 31 31 32 33 34 37 37 33 27 19 14 14 12 9 6 4 3 4 5 5 5 4 4 4 4 4 2 2 2 1 0 1 0 1 2 2 2 3 4 4 4 4
29 25 24 26 27 27 30 32 31 26 19 14 13 12 10 8 6 5 6 7 8 8 7 8 7 6 5 3 1 1 0 0 0 0 1 3 6 8 7 7 6 6 6
32 29 26 28 28 26 27 29 29 24 18 14 11 10 10 9 8 8 8 9 10 9 8 9 8 6 3 2 1 0 0 0 0 0 2 6 11 13 12 11 10 9 9
38 36 34 34 33 32 31 30 27 22 16 12 10 9 9 10 10 10 9 9 9 7 6 7 6 3 1 1 0 0 0 0 0 0 2 8 13 15 17 15 14 13 13
43 41 39 39 38 37 36 32 27 22 16 12 10 10 10 10 11 10 8 8 7 5 3 3 2 1 0 0 0 0 0 0 0 0 2 6 11 17 19 18 16 16 16
47 47 45 43 42 41 40 37 31 25 20 17 14 13 13 12 11 10 8 7 4 2 1 1 0 0 0 0 0 0 0 0 0 0 0 2 7 13 17 17 16 16 17
49 51 50 47 45 43 42 40 36 31 27 24 20 18 18 16 13 11 9 6 2 0 0 0 0 0 0 0 0 0 0 0 0 0 0 0 2 6 11 13 14 14 14
50 51 51 48 45 43 42 41 38 36 34 29 23 20 20 18 14 11 7 4 2 0 0 1 0 0 0 0 0 0 0 0 0 0 0 0 1 3 5 7 10 11 11
46 47 47 46 45 44 43 42 41 39 35 30 25 21 19 16 13 9 5 4 3 2 1 1 0 0 0 0 0 0 0 0 0 0 0 0 1 2 3 4 7 9 8
38 40 41 41 41 43 44 42 41 39 35 29 25 23 21 16 11 8 5 5 5 4 3 2 1 0 0 0 0 0 0 0 0 0 0 0 0 1 2 4 6 6 5
33 35 35 32 32 35 38 38 37 37 33 28 25 24 22 18 13 8 5 4 6 6 6 4 2 0 0 0 0 0 0 0 0 0 0 0 0 0 1 2 3 3 3
30 31 30 27 26 27 29 31 31 30 28 25 23 21 19 16 13 9 5 4 6 7 6 5 3 1 0 0 0 0 0 0 0 0 0 0 0 0 0 1 1 1 2
26 26 26 26 25 23 23 25 24 22 20 19 18 15 12 11 11 8 6 6 6 6 5 4 2 1 1 0 0 0 0 0 0 0 0 0 0 0 0 1 1 0 1
24 25 25 25 24 22 20 20 19 17 16 14 12 9 7 7 8 8 7 6 6 5 4 2 1 1 1 1 0 0 0 0 0 0 0 0 0 0 0 1 1 0 0
25 25 25 25 24 22 19 17 16 16 15 12 9 6 5 6 7 7 7 6 6 4 2 1 0 0 0 1 0 0 0 0 0 0 0 0 0 0 0 0 1 0 0

GEFSSE_con_probscp_168.txt.gz
Probability
7 13 20 24 25 25 26 27 29 33 37 40 40 37 33 27 17 8 4 3 2 1 0 0 0 0 0 0 0 0 0 0 0 0 0 0 0 0 0 0 0 0 0
13 18 25 29 30 31 32 31 30 32 35 37 37 36 32 26 19 10 5 3 2 1 0 0 0 0 0 0 0 0 0 0 0 0 0 0 0 0 0 0 0 0 0
23 27 35 40 39 39 38 35 32 32 32 33 33 32 29 24 17 11 6 3 1 0 0 0 0 0 0 0 0 0 0 0 0 0 0 0 0 0 0 0 0 0 0
30 34 42 48 47 43 41 38 34 31 29 28 28 27 24 20 15 11 7 3 0 0 0 0 0 0 0 0 0 0 0 0 0 0 0 0 0 0 0 0 0 0 0
34 38 45 51 50 46 43 40 36 32 28 26 23 21 20 18 15 12 8 4 1 0 0 0 0 0 0 0 0 0 0 0 0 0 0 0 0 0 0 0 0 0 0
38 41 47 52 52 48 44 42 39 35 32 27 22 19 18 18 16 13 9 4 1 0 0 0 0 0 0 0 0 0 0 0 0 0 0 0 0 0 0 0 0 0 0
42 43 48 52 53 50 47 44 42 40 37 32 25 21 19 18 15 12 8 5 3 2 1 0 0 0 0 0 0 0 0 0 0 0 0 0 0 0 0 0 0 0 0
42 44 48 50 51 50 49 47 45 44 41 36 29 24 20 17 14 11 8 6 5 5 3 1 1 1 1 1 1 1 1 1 0 0 0 1 1 1 1 1 1 1 0
40 43 46 46 46 48 48 47 46 45 43 39 34 27 21 17 14 11 9 7 6 6 5 4 3 4 4 4 3 2 2 1 0 0 0 1 2 2 2 2 2 1 1
40 40 43 44 42 43 44 45 45 44 42 40 36 29 22 17 14 11 10 8 6 5 5 5 5 5 5 4 4 3 2 1 1 1 1 1 2 2 2 1 1 1 0
40 38 39 40 40 41 43 43 42 40 38 36 32 28 21 16 13 12 11 9 7 5 5 5 5 4 3 3 4 4 3 3 3 2 2 1 1 1 1 0 0 0 0
36 36 35 35 38 41 42 41 39 36 34 32 29 26 21 16 14 14 13 11 8 7 7 7 6 5 3 3 3 4 5 5 4 3 3 2 1 1 1 0 0 0 0
32 34 35 35 36 38 39 38 36 34 32 30 27 25 22 18 15 15 15 13 10 9 10 10 10 8 7 5 4 4 4 4 4 3 3 3 3 2 2 1 1 1 1
29 33 36 35 33 34 35 35 34 32 30 28 25 22 19 16 14 14 14 12 11 10 12 13 11 9 8 6 4 3 3 3 3 2 1 2 3 3 3 2 2 3 3
25 29 33 31 30 31 32 31 31 30 27 25 22 18 14 11 10 9 9 9 9 10 13 13 11 8 7 6 3 2 2 2 2 1 0 1 2 3 3 3 3 4 5
22 25 29 28 26 27 29 29 27 25 23 22 19 16 12 9 7 5 5 5 6 8 10 10 9 7 5 4 2 0 1 1 1 0 0 1 2 3 3 3 5 6 6
24 24 27 26 25 25 27 27 25 22 20 18 17 16 14 10 6 4 4 3 3 5 6 6 6 5 5 3 1 0 0 0 0 0 0 1 2 3 3 3 4 6 6
25 24 24 25 26 25 26 27 27 23 17 14 14 16 16 12 8 5 5 4 2 1 2 2 3 3 4 2 1 0 0 0 0 0 0 0 1 2 2 1 2 3 5
25 22 21 23 25 25 25 25 25 22 15 11 12 15 16 13 8 5 5 4 2 1 1 0 1 1 1 1 0 0 0 0 0 0 0 0 0 0 0 0 0 2 4
24 22 20 21 22 23 23 23 23 19 14 11 11 12 12 11 7 4 3 3 3 2 1 1 0 0 0 0 0 0 0 0 0 0 0 0 0 0 1 1 1 2 3
21 21 20 20 20 20 21 21 21 19 14 11 10 8 8 8 7 5 3 3 3 1 1 1 1 0 0 0 0 0 0 0 0 0 0 0 0 1 2 3 3 2 2
18 19 21 21 20 19 19 18 18 16 13 11 10 8 7 8 9 7 6 3 1 0 1 1 1 0 0 0 0 0 0 0 0 0 0 0 0 1 2 3 3 2 2
18 18 20 22 22 21 19 17 15 12 10 11 11 9 8 9 8 7 5 2 0 0 0 0 0 1 1 0 0 0 0 0 0 0 0 0 0 1 1 1 1 1 1
17 17 18 21 22 22 20 17 14 11 9 9 10 9 8 7 5 3 3 2 1 0 0 0 1 2 2 1 0 0 0 0 0 0 0 0 0 0 0 0 0 0 0
14 14 16 18 20 20 19 15 13 11 9 8 9 8 7 4 2 1 1 2 1 0 0 1 2 3 3 2 1 0 0 0 0 0 0 0 0 0 0 0 0 0 0
10 12 15 17 19 19 17 14 12 10 8 8 9 9 7 4 1 1 1 1 1 0 0 1 2 3 3 3 2 1 0 0 0 0 0 0 0 0 0 0 0 0 0

GEFSSE_con_probscp_174.txt.gz
Probability
10 18 23 18 13 12 12 15 22 30 34 30 24 19 15 11 8 5 4 3 2 1 1 0 0 0 0 0 0 0 0 0 0 0 0 0 0 0 0 0 0 1 1
16 23 28 24 18 16 17 20 26 34 37 34 29 24 20 16 11 8 5 4 3 3 2 1 0 0 0 0 0 0 0 0 0 0 0 0 0 0 0 0 0 1 2
23 27 33 32 27 24 25 27 31 36 40 39 35 30 26 22 17 12 8 6 5 4 3 1 0 0 0 0 0 0 0 0 0 0 0 0 0 0 0 0 0 0 1
24 28 35 38 35 31 31 31 34 38 42 44 40 34 30 27 23 16 11 7 6 5 2 1 0 0 0 0 0 0 0 0 0 0 0 0 0 1 0 0 0 0 0
25 29 37 41 39 36 35 35 37 42 47 48 45 40 36 32 28 21 14 8 6 3 1 0 0 0 0 0 0 0 0 0 0 0 0 0 0 1 1 0 0 0 0
26 31 39 44 42 39 38 39 40 45 48 48 47 45 42 38 33 25 17 10 6 3 1 1 0 0 0 0 0 0 0 0 0 0 0 0 1 2 2 1 0 0 0
28 33 42 47 44 41 40 40 42 44 46 46 45 45 44 41 35 28 21 15 10 7 4 3 2 2 2 1 0 0 0 0 0 0 0 0 1 3 3 1 0 0 0
33 37 44 47 44 42 40 40 40 41 42 42 42 42 42 39 33 28 24 20 17 13 10 7 6 5 4 3 1 0 0 0 0 0 0 1 3 4 4 2 1 0 0
39 41 44 45 43 42 40 40 38 37 38 39 38 38 36 33 29 26 23 22 21 17 13 11 10 7 5 4 2 1 0 0 1 1 1 2 5 5 4 2 1 0 0
43 43 43 43 41 39 38 38 38 35 35 34 34 33 31 28 26 23 20 20 20 18 14 11 10 8 5 3 2 2 1 1 2 2 3 5 7 6 3 3 1 1 0
49 47 44 41 38 34 34 36 37 35 33 32 32 32 28 23 20 18 18 19 19 16 13 10 9 7 5 2 1 2 2 2 2 3 5 9 10 6 3 3 3 2 2
53 50 45 40 36 34 35 38 39 39 38 36 35 35 29 22 19 17 19 22 20 17 15 12 10 7 4 1 1 2 3 2 3 3 7 12 11 6 3 3 3 4 4
53 51 46 42 40 39 41 44 46 46 45 43 40 39 33 27 24 22 23 23 21 20 19 18 16 10 5 3 3 3 2 2 3 4 9 13 10 5 4 3 3 4 5
53 52 50 47 46 44 45 48 50 50 48 46 43 40 36 33 30 28 28 25 23 24 26 26 22 15 10 7 5 2 2 3 3 4 9 11 7 3 4 3 3 4 6
53 52 51 50 49 48 46 47 48 49 47 46 45 41 37 36 35 33 32 28 24 24 28 30 25 18 16 13 8 4 4 5 4 4 7 8 4 1 2 3 4 6 7
48 47 47 47 48 48 47 44 44 44 43 42 43 42 39 38 38 37 33 28 23 21 26 29 25 21 20 17 12 8 7 7 6 5 6 7 5 2 2 4 7 8 8
40 41 43 44 45 46 45 41 38 36 35 35 35 36 35 36 38 37 33 28 24 23 26 28 26 23 21 19 16 12 10 11 10 7 6 8 8 5 4 6 8 9 8
40 41 42 41 40 41 41 39 36 33 30 28 27 28 29 32 34 35 33 32 32 31 31 29 27 25 23 20 18 15 14 15 12 9 7 8 8 7 7 8 9 8 7
42 43 42 39 36 37 39 38 37 35 31 27 26 27 27 29 31 32 34 38 40 39 38 35 31 28 25 20 17 17 17 17 16 12 9 7 7 6 6 7 9 9 7
40 42 42 38 36 37 39 38 37 35 33 31 30 30 29 28 30 32 34 37 40 41 42 39 34 30 26 21 16 15 17 16 15 15 11 7 6 5 4 5 8 9 8
39 41 41 40 38 40 41 41 39 36 34 34 33 32 30 28 27 30 31 33 34 37 39 37 31 27 26 23 19 15 12 11 11 12 9 6 4 4 4 4 7 8 7
37 37 38 37 37 39 41 41 40 38 34 32 32 30 27 25 23 24 27 30 31 31 32 32 28 24 23 23 21 16 9 6 7 6 5 4 2 2 3 4 6 8 7
29 29 29 31 33 35 36 34 34 33 30 28 27 27 24 21 20 21 24 27 30 29 29 30 28 25 22 21 19 15 9 6 5 4 2 3 2 2 3 5 6 7 8
21 23 24 27 30 32 29 26 25 25 24 24 25 25 22 19 19 20 21 23 26 28 29 29 26 24 22 19 16 12 8 6 6 5 3 3 3 3 4 5 6 6 7
18 21 25 28 30 30 26 21 20 20 21 23 24 23 21 19 18 19 19 20 22 25 26 25 22 21 19 16 12 9 7 6 6 5 4 4 4 4 4 5 6 6 6
15 20 25 28 31 30 24 19 19 20 21 24 24 21 20 19 19 19 19 19 20 22 23 21 20 19 17 13 10 8 7 6 5 5 5 4 5 4 4 5 5 6 6

GEFSSE_con_probscp_180.txt.gz
Probability
29 36 42 40 31 24 19 13 5 1 2 4 5 6 6 6 4 3 3 4 4 3 1 0 0 0 0 0 0 0 0 0 0 1 2 2 3 3 3 2 1 1 1
40 41 45 43 34 26 21 15 8 4 3 5 5 6 6 6 6 5 5 5 5 4 1 0 0 0 0 0 0 0 0 0 0 0 1 1 2 3 3 1 1 2 2
48 47 47 46 40 31 25 19 14 10 9 8 8 8 7 6 6 6 6 6 6 5 3 1 0 0 0 0 0 0 0 0 0 0 0 0 1 3 3 1 1 2 3
47 47 48 49 44 36 29 23 20 17 14 13 13 12 9 7 6 6 6 6 7 6 4 2 1 1 0 0 0 0 0 0 0 0 0 0 2 5 4 2 1 2 3
43 47 54 55 48 40 31 25 23 20 17 17 18 17 14 11 9 9 8 8 8 8 6 4 3 2 1 0 0 0 0 0 0 0 0 0 4 8 7 4 2 3 3
44 50 58 59 53 43 33 27 24 20 18 19 20 21 20 19 17 14 11 11 11 11 9 7 5 4 3 1 0 0 0 0 0 0 0 2 8 14 11 6 4 4 4
51 53 56 59 58 49 37 30 26 23 21 22 22 23 24 25 25 20 16 14 14 14 12 9 7 6 5 2 1 2 1 1 1 0 0 4 14 20 15 9 7 6 5
57 55 54 57 58 52 42 35 30 27 26 26 27 28 28 29 28 25 21 18 17 17 15 12 9 7 6 5 4 3 3 2 1 0 1 7 18 25 20 13 9 8 7
57 56 53 53 53 49 44 41 38 34 31 31 31 31 30 28 26 23 21 20 19 19 17 14 11 9 8 7 5 4 3 3 2 0 1 9 22 27 23 17 11 7 6
51 53 52 50 48 44 42 44 43 40 36 33 32 32 29 25 21 19 19 20 20 19 18 16 14 13 11 8 5 3 2 2 1 1 3 15 28 30 25 20 14 7 5
47 49 49 47 44 40 39 43 45 43 40 36 33 32 30 24 21 21 22 25 25 21 20 19 18 16 14 10 7 5 4 2 1 3 10 26 37 34 26 22 16 8 3
45 47 46 43 41 38 38 43 46 45 44 41 37 36 34 28 25 26 30 35 34 27 22 21 21 19 16 12 11 11 8 4 3 6 18 37 45 37 26 21 15 7 3
48 47 45 43 43 42 43 47 49 49 50 47 43 42 38 33 29 30 36 43 42 34 26 23 22 21 18 14 12 13 11 5 3 8 22 41 47 38 27 21 16 9 6
52 51 48 48 50 53 55 55 52 51 53 52 51 49 43 37 32 32 38 45 45 39 32 26 23 22 19 13 9 9 9 6 6 10 22 38 42 37 30 25 20 15 10
55 55 54 56 60 64 66 64 56 52 52 55 57 55 49 42 36 33 37 43 43 40 35 28 24 23 21 15 10 7 8 9 12 15 21 29 34 34 32 28 26 21 15
58 58 59 62 66 68 69 66 60 56 55 55 58 59 55 48 42 37 38 42 41 37 32 27 25 26 24 20 16 12 11 13 18 23 25 25 27 29 32 32 32 28 24
59 61 62 64 66 67 67 65 62 59 58 58 58 59 56 52 48 43 42 44 42 35 28 25 26 28 25 21 21 20 17 17 21 27 29 27 23 24 30 35 36 33 29
61 63 65 65 66 66 64 63 61 59 58 58 58 56 53 51 50 47 44 45 44 36 28 25 26 27 24 21 20 20 18 19 21 23 26 26 22 20 24 30 33 31 27
59 62 64 64 63 63 61 61 60 56 52 53 54 53 50 49 48 46 44 43 43 38 31 27 27 27 25 20 16 14 14 17 19 18 18 19 19 19 18 20 25 26 24
56 59 60 60 60 59 59 60 58 53 48 46 47 49 47 45 43 43 42 40 40 38 34 31 31 30 25 19 13 9 8 10 14 16 14 12 12 13 13 15 20 22 20
56 56 55 55 56 57 58 59 56 51 46 42 41 42 43 41 39 40 39 39 38 37 35 34 33 29 23 19 14 8 4 5 8 10 11 9 6 6 9 14 19 21 18
53 52 50 51 53 55 58 58 54 48 43 40 38 39 40 38 37 36 37 37 36 35 34 32 30 25 20 18 17 11 5 3 4 6 7 6 3 4 6 10 17 20 18
48 48 48 51 52 54 55 53 47 44 41 40 40 40 39 37 35 35 35 34 33 32 32 30 28 24 19 17 17 13 7 4 5 7 8 6 5 5 6 7 11 16 17
43 45 48 50 51 51 49 45 42 41 40 39 40 40 38 36 35 35 34 32 30 29 29 28 26 24 18 14 14 12 8 6 6 7 8 8 7 8 7 6 7 11 13
39 41 45 47 47 45 42 40 38 36 35 34 35 36 35 35 34 33 30 27 26 25 25 25 24 21 17 14 13 11 9 6 6 5 5 6 7 7 7 6 7 9 11
37 39 41 43 42 39 38 37 34 32 31 30 32 33 33 33 33 30 26 23 22 22 22 22 21 19 17 15 14 12 9 7 6 5 4 4 5 5 6 7 8 9 11

GEFSSE_con_probscp_186.txt.gz
Probability
14 26 42 49 48 45 39 34 29 22 16 12 10 12 17 20 20 20 18 16 14 13 13 12 9 4 2 3 6 7 6 4 2 2 3 4 6 7 6 5 5 5 6
21 29 43 50 50 46 40 35 31 24 19 14 10 11 16 20 20 19 18 17 15 15 13 12 9 6 3 3 6 8 7 4 3 3 3 4 6 8 8 8 7 6 6
31 34 43 52 54 49 42 38 33 27 21 16 12 11 15 19 21 21 20 17 16 16 15 13 10 8 6 5 5 7 7 5 4 4 4 4 6 8 9 8 8 7 6
36 39 46 55 58 54 47 41 35 28 22 18 15 13 14 18 22 23 21 18 15 15 15 15 13 11 9 7 4 4 4 4 5 5 3 2 4 7 8 6 6 7 7
36 40 49 59 62 59 52 44 37 29 23 19 16 13 13 15 19 21 19 16 13 13 14 15 15 14 12 8 4 3 3 4 6 5 2 1 3 7 6 5 6 9 9
35 40 50 60 63 60 55 49 41 33 26 21 16 13 11 12 15 17 16 13 12 12 12 13 15 16 14 10 6 5 5 6 6 5 3 1 2 5 6 6 8 10 11
36 40 50 58 60 58 55 53 48 39 32 27 22 18 16 16 17 17 15 12 11 11 11 11 13 14 14 11 8 6 7 7 6 5 3 1 1 3 7 9 9 9 11
37 41 47 52 54 54 54 52 49 42 36 34 31 28 26 25 22 19 16 13 12 12 11 9 10 11 12 11 9 7 7 8 8 6 5 3 2 3 7 10 9 9 10
38 41 45 48 49 51 50 48 46 43 39 38 37 35 31 28 24 19 16 15 14 14 12 9 7 8 8 9 10 8 6 8 9 8 6 4 3 3 7 10 11 10 10
38 41 45 47 46 45 43 43 44 43 41 40 39 37 33 27 21 17 16 15 15 15 13 10 8 7 7 8 8 7 6 7 8 7 6 5 4 5 9 13 14 13 11
37 38 40 41 38 37 36 38 40 40 39 39 38 38 34 27 21 18 15 14 15 15 15 13 12 10 8 8 8 7 6 8 8 7 6 6 6 7 13 18 18 16 14
34 33 31 30 29 31 34 36 36 35 34 34 34 35 32 26 21 17 12 11 13 15 15 15 16 15 14 13 12 10 9 10 9 7 4 6 10 13 20 26 24 20 18
32 30 26 24 23 25 30 35 34 33 31 29 29 30 27 22 18 14 10 9 12 15 16 16 17 19 19 18 16 13 11 12 12 8 4 6 13 19 25 29 27 24 23
31 30 28 24 22 22 26 32 34 33 31 28 26 25 22 19 16 13 11 12 15 18 19 17 17 19 18 14 12 11 10 11 12 9 4 6 13 21 25 27 27 27 27
33 33 31 27 24 24 26 30 32 31 29 27 25 23 22 21 18 16 15 15 17 20 20 17 15 14 11 7 5 7 7 9 11 9 6 8 15 21 22 23 25 27 27
37 37 35 31 27 26 26 28 28 26 25 24 23 23 23 22 20 18 17 15 16 18 17 14 10 7 5 2 2 4 6 7 8 7 6 9 15 20 20 20 21 23 23
40 39 35 32 29 28 26 25 24 24 22 22 21 21 21 20 18 15 14 13 13 14 14 10 6 4 2 1 1 2 3 5 5 4 5 8 11 14 16 16 18 20 21
39 37 33 30 28 27 24 23 24 23 23 22 20 19 20 20 17 14 12 12 11 12 12 8 5 4 2 2 1 1 1 3 2 2 3 6 8 9 10 13 17 19 19
35 34 32 29 26 24 22 23 24 24 24 23 20 20 21 21 20 17 14 12 12 12 11 7 4 3 3 3 2 1 0 1 2 2 2 4 5 7 8 10 14 16 16
31 31 29 26 22 20 21 22 22 22 21 20 19 19 20 20 19 17 16 15 14 12 10 6 3 1 2 2 2 1 0 0 1 1 1 1 2 5 6 7 9 11 12
26 25 22 19 18 17 18 19 17 16 16 16 17 17 17 18 17 16 15 15 14 12 10 7 3 1 1 2 3 3 1 0 0 0 0 0 0 1 2 3 4 6 8
20 19 16 13 13 14 14 14 13 12 12 13 15 15 17 18 18 17 14 13 13 11 10 8 6 3 3 4 5 5 3 1 0 0 0 0 0 0 0 1 1 3 4
14 14 13 11 10 10 11 11 11 10 10 11 12 14 15 16 18 18 15 12 12 11 10 9 8 7 5 5 6 6 4 1 0 0 0 0 0 0 0 0 0 1 2
11 11 10 9 8 7 8 9 9 9 10 10 10 11 13 12 13 15 14 13 12 11 10 10 10 9 6 5 6 6 5 2 0 0 0 0 0 0 0 0 0 0 1
10 9 8 7 6 5 5 7 7 7 8 8 9 10 10 9 8 10 11 11 10 9 9 10 10 9 7 6 6 6 5 3 1 1 1 0 0 0 0 0 0 0 0
10 9 8 7 6 4 4 6 6 6 6 6 7 9 9 7 6 7 9 8 7 8 9 10 10 9 7 6 6 6 5 3 2 2 2 1 0 0 0 0 0 0 0

GEFSSE_con_probscp_192.txt.gz
Probability
8 19 32 39 40 42 44 44 42 43 48 49 45 38 29 22 19 18 16 14 12 10 10 9 8 7 5 3 1 0 0 0 0 0 0 0 0 0 0 1 1 1 1
15 24 36 40 40 42 45 44 41 41 42 43 42 36 30 26 22 19 17 15 12 11 11 10 10 9 7 4 2 1 1 0 0 0 0 0 0 0 0 1 1 1 1
23 30 37 39 40 42 45 44 44 40 36 35 35 32 30 29 25 22 20 17 13 11 11 11 12 12 11 8 5 3 2 1 0 0 1 1 1 0 0 0 0 0 1
26 30 34 36 40 42 45 44 44 42 36 31 29 28 28 27 26 25 22 17 12 11 11 11 12 12 12 11 8 5 4 2 1 2 2 3 2 1 1 1 1 0 0
24 26 29 36 42 45 46 44 42 40 37 32 29 27 26 25 25 25 23 17 14 13 11 10 10 10 11 12 10 8 6 5 5 5 5 4 4 2 2 2 1 1 1
21 22 28 37 44 47 47 45 42 40 38 35 32 29 27 24 22 22 21 18 16 15 12 10 9 8 9 10 10 10 9 8 8 8 6 5 4 3 3 2 2 2 2
24 24 29 38 44 46 47 46 44 40 37 35 33 31 28 24 20 19 18 16 15 14 12 11 10 9 8 9 9 9 9 9 10 10 8 6 4 4 4 3 3 4 4
27 26 30 37 41 43 44 45 42 37 33 32 30 30 28 24 19 17 16 15 14 13 12 12 12 11 10 9 8 7 8 8 9 10 9 6 4 4 5 5 5 5 6
25 25 27 31 34 36 38 39 36 32 29 27 27 29 29 26 20 16 15 14 12 11 10 11 11 11 11 10 7 7 8 8 9 10 9 7 5 4 5 6 6 6 7
23 23 24 26 28 29 29 29 29 29 27 26 26 29 30 27 21 17 15 13 11 9 8 8 8 8 10 8 6 7 9 9 9 9 8 7 5 6 8 8 6 6 6
24 23 22 23 24 24 22 22 23 25 26 26 27 28 27 24 21 19 16 14 11 9 7 5 4 4 6 7 5 6 8 9 8 7 7 7 6 7 9 9 7 6 6
24 23 21 20 19 19 19 18 19 21 23 24 25 25 23 21 19 18 16 14 12 9 6 4 3 3 4 7 8 9 8 7 6 6 6 6 6 6 8 9 8 6 6
23 22 19 16 15 16 16 18 18 18 18 20 21 21 20 19 18 16 15 14 12 9 6 5 5 4 4 8 12 12 8 7 6 5 4 4 4 4 6 8 8 6 6
21 21 18 16 15 15 16 17 17 16 15 17 19 18 18 17 16 14 13 13 12 10 9 8 6 4 4 7 9 9 7 6 7 6 4 3 3 3 5 7 8 8 8
19 19 18 16 15 15 15 16 17 16 15 17 19 18 16 14 13 12 11 11 11 12 12 11 7 4 4 4 4 4 4 5 6 6 4 3 3 3 4 6 8 8 8
16 17 17 16 15 14 14 15 17 18 17 17 18 17 15 13 12 11 11 11 11 12 13 12 8 5 3 3 3 2 2 3 4 4 4 3 3 4 4 7 10 10 9
14 15 17 18 16 14 14 15 18 20 18 15 15 14 14 14 14 13 12 11 10 10 11 10 7 4 3 3 3 2 1 1 1 2 3 4 4 5 5 8 11 12 11
11 13 16 18 17 14 13 15 17 19 18 14 12 11 12 14 16 14 11 9 9 9 10 9 6 4 3 3 2 1 0 0 1 2 3 5 5 5 5 7 9 10 10
11 13 15 16 15 14 13 13 13 14 15 13 10 9 10 12 14 12 9 7 7 9 10 10 8 6 4 3 2 1 1 1 2 3 4 5 5 4 4 6 8 8 8
12 13 14 13 12 12 12 10 7 7 8 9 7 6 8 10 10 9 8 7 7 8 10 11 10 7 4 3 3 3 2 3 3 3 4 5 5 3 3 6 9 9 9
12 12 12 10 9 8 8 6 4 4 5 5 4 4 6 7 7 7 8 8 8 9 10 10 9 7 5 4 4 3 3 3 3 3 3 4 4 4 4 6 10 11 9
9 9 8 6 5 5 5 4 3 3 4 4 3 3 3 3 5 7 8 8 9 10 10 9 8 7 6 6 5 4 3 3 1 1 2 4 4 4 5 7 9 10 8
6 6 4 2 3 3 3 2 1 1 3 4 3 2 1 1 3 6 7 7 8 9 9 8 7 6 6 6 6 5 4 2 1 0 1 1 2 2 3 5 7 7 8
4 4 3 1 2 2 1 1 0 1 2 2 2 2 1 0 1 3 4 6 7 7 7 6 6 6 6 6 6 5 4 2 1 0 0 0 0 0 1 3 4 5 6
1 2 2 1 1 1 0 0 0 2 2 2 1 1 0 0 0 2 3 4 5 6 5 4 3 4 4 4 4 4 3 2 1 0 0 0 0 0 0 1 2 3 4
0 1 2 2 1 0 0 0 0 1 2 2 1 0 0 0 1 2 4 4 5 5 3 1 2 3 3 2 2 2 1 1 0 0 0 0 0 0 0 1 2 2 1